Year,Month,Day,Hour,Minute,Value (Times are PST for windspeed in km/hr)
2011,07,08,00,00,14.40
2011,07,08,00,01,12.60
2011,07,08,00,02,13.30
2011,07,08,00,03,15.90
2011,07,08,00,04,13.60
2011,07,08,00,05,16.90
2011,07,08,00,06,13.30
2011,07,08,00,07,12.70
2011,07,08,00,08,14.20
2011,07,08,00,09,11.00
2011,07,08,00,10,13.30
2011,07,08,00,11,14.60
2011,07,08,00,12,9.40
2011,07,08,00,13,11.00
2011,07,08,00,14,13.50
2011,07,08,00,15,12.20
2011,07,08,00,16,10.70
2011,07,08,00,17,9.00
2011,07,08,00,18,15.50
2011,07,08,00,19,11.00
2011,07,08,00,20,8.70
2011,07,08,00,21,11.00
2011,07,08,00,22,12.00
2011,07,08,00,23,10.40
2011,07,08,00,24,15.50
2011,07,08,00,25,9.70
2011,07,08,00,26,7.50
2011,07,08,00,27,13.90
2011,07,08,00,28,16.40
2011,07,08,00,29,10.10
2011,07,08,00,30,9.50
2011,07,08,00,31,8.30
2011,07,08,00,32,8.10
2011,07,08,00,33,9.50
2011,07,08,00,34,16.90
2011,07,08,00,35,15.00
2011,07,08,00,36,13.40
2011,07,08,00,37,17.00
2011,07,08,00,38,13.40
2011,07,08,00,39,14.80
2011,07,08,00,40,11.80
2011,07,08,00,41,15.90
2011,07,08,00,42,8.80
2011,07,08,00,43,14.60
2011,07,08,00,44,17.40
2011,07,08,00,45,14.10
2011,07,08,00,46,11.80
2011,07,08,00,47,15.70
2011,07,08,00,48,10.00
2011,07,08,00,49,9.70
2011,07,08,00,50,6.90
2011,07,08,00,51,7.70
2011,07,08,00,52,11.60
2011,07,08,00,53,7.80
2011,07,08,00,54,13.30
2011,07,08,00,55,11.50
2011,07,08,00,56,12.30
2011,07,08,00,57,13.50
2011,07,08,00,58,13.70
2011,07,08,00,59,10.40
2011,07,08,01,00,12.50
2011,07,08,01,01,13.80
2011,07,08,01,02,13.30
2011,07,08,01,03,11.30
2011,07,08,01,04,8.90
2011,07,08,01,05,10.50
2011,07,08,01,06,8.00
2011,07,08,01,07,11.30
2011,07,08,01,08,9.10
2011,07,08,01,09,10.10
2011,07,08,01,10,7.90
2011,07,08,01,11,8.00
2011,07,08,01,12,11.30
2011,07,08,01,13,9.90
2011,07,08,01,14,10.40
2011,07,08,01,15,11.50
2011,07,08,01,16,7.50
2011,07,08,01,17,6.80
2011,07,08,01,18,9.00
2011,07,08,01,19,14.80
2011,07,08,01,20,12.70
2011,07,08,01,21,10.70
2011,07,08,01,22,7.90
2011,07,08,01,23,5.60
2011,07,08,01,24,10.50
2011,07,08,01,25,7.00
2011,07,08,01,26,8.00
2011,07,08,01,27,8.40
2011,07,08,01,28,7.20
2011,07,08,01,29,4.30
2011,07,08,01,30,8.40
2011,07,08,01,31,5.20
2011,07,08,01,32,5.50
2011,07,08,01,33,6.40
2011,07,08,01,34,8.10
2011,07,08,01,35,3.90
2011,07,08,01,36,3.40
2011,07,08,01,37,5.20
2011,07,08,01,38,4.40
2011,07,08,01,39,4.40
2011,07,08,01,40,10.00
2011,07,08,01,41,15.50
2011,07,08,01,42,12.90
2011,07,08,01,43,9.70
2011,07,08,01,44,11.50
2011,07,08,01,45,18.00
2011,07,08,01,46,12.60
2011,07,08,01,47,11.20
2011,07,08,01,48,4.50
2011,07,08,01,49,5.40
2011,07,08,01,50,6.80
2011,07,08,01,51,8.00
2011,07,08,01,52,10.40
2011,07,08,01,53,9.50
2011,07,08,01,54,4.60
2011,07,08,01,55,10.80
2011,07,08,01,56,11.20
2011,07,08,01,57,9.20
2011,07,08,01,58,11.10
2011,07,08,01,59,10.80
2011,07,08,02,00,6.80
2011,07,08,02,01,1.80
2011,07,08,02,02,3.10
2011,07,08,02,03,6.20
2011,07,08,02,04,5.90
2011,07,08,02,05,5.60
2011,07,08,02,06,9.50
2011,07,08,02,07,4.30
2011,07,08,02,08,5.20
2011,07,08,02,09,4.00
2011,07,08,02,10,9.70
2011,07,08,02,11,8.60
2011,07,08,02,12,6.60
2011,07,08,02,13,2.90
2011,07,08,02,14,12.80
2011,07,08,02,15,7.20
2011,07,08,02,16,7.40
2011,07,08,02,17,5.50
2011,07,08,02,18,9.00
2011,07,08,02,19,6.40
2011,07,08,02,20,6.00
2011,07,08,02,21,6.40
2011,07,08,02,22,4.90
2011,07,08,02,23,6.10
2011,07,08,02,24,8.00
2011,07,08,02,25,8.40
2011,07,08,02,26,4.80
2011,07,08,02,27,10.10
2011,07,08,02,28,10.20
2011,07,08,02,29,4.70
2011,07,08,02,30,5.90
2011,07,08,02,31,6.50
2011,07,08,02,32,8.90
2011,07,08,02,33,6.70
2011,07,08,02,34,9.00
2011,07,08,02,35,8.30
2011,07,08,02,36,5.80
2011,07,08,02,37,9.40
2011,07,08,02,38,9.70
2011,07,08,02,39,14.50
2011,07,08,02,40,8.80
2011,07,08,02,41,7.20
2011,07,08,02,42,8.70
2011,07,08,02,43,9.30
2011,07,08,02,44,12.40
2011,07,08,02,45,11.70
2011,07,08,02,46,11.50
2011,07,08,02,47,12.10
2011,07,08,02,48,8.10
2011,07,08,02,49,11.40
2011,07,08,02,50,10.20
2011,07,08,02,51,8.50
2011,07,08,02,52,13.30
2011,07,08,02,53,9.40
2011,07,08,02,54,5.90
2011,07,08,02,55,8.40
2011,07,08,02,56,12.00
2011,07,08,02,57,9.50
2011,07,08,02,58,8.00
2011,07,08,02,59,8.80
2011,07,08,03,00,10.40
2011,07,08,03,01,9.40
2011,07,08,03,02,10.20
2011,07,08,03,03,11.80
2011,07,08,03,04,8.00
2011,07,08,03,05,11.30
2011,07,08,03,06,12.50
2011,07,08,03,07,17.60
2011,07,08,03,08,14.40
2011,07,08,03,09,7.60
2011,07,08,03,10,13.90
2011,07,08,03,11,11.10
2011,07,08,03,12,8.80
2011,07,08,03,13,6.90
2011,07,08,03,14,14.50
2011,07,08,03,15,9.20
2011,07,08,03,16,10.10
2011,07,08,03,17,8.60
2011,07,08,03,18,11.00
2011,07,08,03,19,11.00
2011,07,08,03,20,9.60
2011,07,08,03,21,6.00
2011,07,08,03,22,8.60
2011,07,08,03,23,8.50
2011,07,08,03,24,9.80
2011,07,08,03,25,7.40
2011,07,08,03,26,8.60
2011,07,08,03,27,8.30
2011,07,08,03,28,9.40
2011,07,08,03,29,4.70
2011,07,08,03,30,4.70
2011,07,08,03,31,12.20
2011,07,08,03,32,5.40
2011,07,08,03,33,9.40
2011,07,08,03,34,10.10
2011,07,08,03,35,5.90
2011,07,08,03,36,8.00
2011,07,08,03,37,8.70
2011,07,08,03,38,7.40
2011,07,08,03,39,9.90
2011,07,08,03,40,11.50
2011,07,08,03,41,5.20
2011,07,08,03,42,12.20
2011,07,08,03,43,9.00
2011,07,08,03,44,11.70
2011,07,08,03,45,11.30
2011,07,08,03,46,11.40
2011,07,08,03,47,11.20
2011,07,08,03,48,12.00
2011,07,08,03,49,4.30
2011,07,08,03,50,9.50
2011,07,08,03,51,9.30
2011,07,08,03,52,13.30
2011,07,08,03,53,12.00
2011,07,08,03,54,9.90
2011,07,08,03,55,10.30
2011,07,08,03,56,10.10
2011,07,08,03,57,10.80
2011,07,08,03,58,11.30
2011,07,08,03,59,4.80
2011,07,08,04,00,3.40
2011,07,08,04,01,8.80
2011,07,08,04,02,6.10
2011,07,08,04,03,5.40
2011,07,08,04,04,8.60
2011,07,08,04,05,8.90
2011,07,08,04,06,5.40
2011,07,08,04,07,5.30
2011,07,08,04,08,7.60
2011,07,08,04,09,5.90
2011,07,08,04,10,3.70
2011,07,08,04,11,3.90
2011,07,08,04,12,1.50
2011,07,08,04,13,3.70
2011,07,08,04,14,3.00
2011,07,08,04,15,5.10
2011,07,08,04,16,5.60
2011,07,08,04,17,8.50
2011,07,08,04,18,4.20
2011,07,08,04,19,6.10
2011,07,08,04,20,11.30
2011,07,08,04,21,2.90
2011,07,08,04,22,1.10
2011,07,08,04,23,6.50
2011,07,08,04,24,6.00
2011,07,08,04,25,2.60
2011,07,08,04,26,5.70
2011,07,08,04,27,2.80
2011,07,08,04,28,3.90
2011,07,08,04,29,7.30
2011,07,08,04,30,5.10
2011,07,08,04,31,6.80
2011,07,08,04,32,9.20
2011,07,08,04,33,2.90
2011,07,08,04,34,2.50
2011,07,08,04,35,3.80
2011,07,08,04,36,3.20
2011,07,08,04,37,2.90
2011,07,08,04,38,4.20
2011,07,08,04,39,4.20
2011,07,08,04,40,6.00
2011,07,08,04,41,2.10
2011,07,08,04,42,2.50
2011,07,08,04,43,1.20
2011,07,08,04,44,4.10
2011,07,08,04,45,7.90
2011,07,08,04,46,1.80
2011,07,08,04,47,0.40
2011,07,08,04,48,1.80
2011,07,08,04,49,1.30
2011,07,08,04,50,3.50
2011,07,08,04,51,3.70
2011,07,08,04,52,3.30
2011,07,08,04,53,5.00
2011,07,08,04,54,1.50
2011,07,08,04,55,3.40
2011,07,08,04,56,4.80
2011,07,08,04,57,6.90
2011,07,08,04,58,3.20
2011,07,08,04,59,5.10
2011,07,08,05,00,2.60
2011,07,08,05,01,0.80
2011,07,08,05,02,0.10
2011,07,08,05,03,0.00
2011,07,08,05,04,2.50
2011,07,08,05,05,2.90
2011,07,08,05,06,1.70
2011,07,08,05,07,8.60
2011,07,08,05,08,5.70
2011,07,08,05,09,6.90
2011,07,08,05,10,3.40
2011,07,08,05,11,3.50
2011,07,08,05,12,0.20
2011,07,08,05,13,0.00
2011,07,08,05,14,0.90
2011,07,08,05,15,5.10
2011,07,08,05,16,5.40
2011,07,08,05,17,2.40
2011,07,08,05,18,7.70
2011,07,08,05,19,4.10
2011,07,08,05,20,4.90
2011,07,08,05,21,1.20
2011,07,08,05,22,0.00
2011,07,08,05,23,0.00
2011,07,08,05,24,0.60
2011,07,08,05,25,2.00
2011,07,08,05,26,0.90
2011,07,08,05,27,1.70
2011,07,08,05,28,0.20
2011,07,08,05,29,1.50
2011,07,08,05,30,2.00
2011,07,08,05,31,1.00
2011,07,08,05,32,1.20
2011,07,08,05,33,2.80
2011,07,08,05,34,6.50
2011,07,08,05,35,2.20
2011,07,08,05,36,3.00
2011,07,08,05,37,1.50
2011,07,08,05,38,0.10
2011,07,08,05,39,0.00
2011,07,08,05,40,0.00
2011,07,08,05,41,0.00
2011,07,08,05,42,0.00
2011,07,08,05,43,0.10
2011,07,08,05,44,0.10
2011,07,08,05,45,0.00
2011,07,08,05,46,0.00
2011,07,08,05,47,0.00
2011,07,08,05,48,0.40
2011,07,08,05,49,0.20
2011,07,08,05,50,1.60
2011,07,08,05,51,0.10
2011,07,08,05,52,0.40
2011,07,08,05,53,0.40
2011,07,08,05,54,0.50
2011,07,08,05,55,0.00
2011,07,08,05,56,0.00
2011,07,08,05,57,0.00
2011,07,08,05,58,0.00
2011,07,08,05,59,0.10
2011,07,08,06,00,0.00
2011,07,08,06,01,0.00
2011,07,08,06,02,0.70
2011,07,08,06,03,1.00
2011,07,08,06,04,1.00
2011,07,08,06,05,0.50
2011,07,08,06,06,1.50
2011,07,08,06,07,1.20
2011,07,08,06,08,1.90
2011,07,08,06,09,4.30
2011,07,08,06,10,1.80
2011,07,08,06,11,0.60
2011,07,08,06,12,5.80
2011,07,08,06,13,2.80
2011,07,08,06,14,1.40
2011,07,08,06,15,2.50
2011,07,08,06,16,5.70
2011,07,08,06,17,5.80
2011,07,08,06,18,4.90
2011,07,08,06,19,3.70
2011,07,08,06,20,1.20
2011,07,08,06,21,3.40
2011,07,08,06,22,3.10
2011,07,08,06,23,1.10
2011,07,08,06,24,0.80
2011,07,08,06,25,3.80
2011,07,08,06,26,3.20
2011,07,08,06,27,3.40
2011,07,08,06,28,1.90
2011,07,08,06,29,0.00
2011,07,08,06,30,2.20
2011,07,08,06,31,3.50
2011,07,08,06,32,0.70
2011,07,08,06,33,0.80
2011,07,08,06,34,1.50
2011,07,08,06,35,0.20
2011,07,08,06,36,0.80
2011,07,08,06,37,0.50
2011,07,08,06,38,0.10
2011,07,08,06,39,0.00
2011,07,08,06,40,0.80
2011,07,08,06,41,1.30
2011,07,08,06,42,3.10
2011,07,08,06,43,1.60
2011,07,08,06,44,1.40
2011,07,08,06,45,1.00
2011,07,08,06,46,4.40
2011,07,08,06,47,3.10
2011,07,08,06,48,0.90
2011,07,08,06,49,0.50
2011,07,08,06,50,4.10
2011,07,08,06,51,2.30
2011,07,08,06,52,1.30
2011,07,08,06,53,0.60
2011,07,08,06,54,0.70
2011,07,08,06,55,3.40
2011,07,08,06,56,6.80
2011,07,08,06,57,5.90
2011,07,08,06,58,1.20
2011,07,08,06,59,1.50
2011,07,08,07,00,5.60
2011,07,08,07,01,2.80
2011,07,08,07,02,3.70
2011,07,08,07,03,2.00
2011,07,08,07,04,3.00
2011,07,08,07,05,5.10
2011,07,08,07,06,5.60
2011,07,08,07,07,2.10
2011,07,08,07,08,1.40
2011,07,08,07,09,3.50
2011,07,08,07,10,3.40
2011,07,08,07,11,2.60
2011,07,08,07,12,3.30
2011,07,08,07,13,0.50
2011,07,08,07,14,2.80
2011,07,08,07,15,3.50
2011,07,08,07,16,2.20
2011,07,08,07,17,6.70
2011,07,08,07,18,6.60
2011,07,08,07,19,0.70
2011,07,08,07,20,1.10
2011,07,08,07,21,0.50
2011,07,08,07,22,2.70
2011,07,08,07,23,0.60
2011,07,08,07,24,3.30
2011,07,08,07,25,2.30
2011,07,08,07,26,3.10
2011,07,08,07,27,4.10
2011,07,08,07,28,5.50
2011,07,08,07,29,8.90
2011,07,08,07,30,7.00
2011,07,08,07,31,4.50
2011,07,08,07,32,3.80
2011,07,08,07,33,1.00
2011,07,08,07,34,5.20
2011,07,08,07,35,4.70
2011,07,08,07,36,5.00
2011,07,08,07,37,3.70
2011,07,08,07,38,0.40
2011,07,08,07,39,2.60
2011,07,08,07,40,4.80
2011,07,08,07,41,1.80
2011,07,08,07,42,5.20
2011,07,08,07,43,4.90
2011,07,08,07,44,4.70
2011,07,08,07,45,6.30
2011,07,08,07,46,5.20
2011,07,08,07,47,3.00
2011,07,08,07,48,4.80
2011,07,08,07,49,4.70
2011,07,08,07,50,1.80
2011,07,08,07,51,0.10
2011,07,08,07,52,4.90
2011,07,08,07,53,2.10
2011,07,08,07,54,0.00
2011,07,08,07,55,2.30
2011,07,08,07,56,2.90
2011,07,08,07,57,0.80
2011,07,08,07,58,1.50
2011,07,08,07,59,4.10
2011,07,08,08,00,1.50
2011,07,08,08,01,0.20
2011,07,08,08,02,5.70
2011,07,08,08,03,4.50
2011,07,08,08,04,8.10
2011,07,08,08,05,2.90
2011,07,08,08,06,1.70
2011,07,08,08,07,2.30
2011,07,08,08,08,2.60
2011,07,08,08,09,4.50
2011,07,08,08,10,6.90
2011,07,08,08,11,6.40
2011,07,08,08,12,3.70
2011,07,08,08,13,7.50
2011,07,08,08,14,5.90
2011,07,08,08,15,2.40
2011,07,08,08,16,6.20
2011,07,08,08,17,6.40
2011,07,08,08,18,2.70
2011,07,08,08,19,8.70
2011,07,08,08,20,4.50
2011,07,08,08,21,5.00
2011,07,08,08,22,4.00
2011,07,08,08,23,5.70
2011,07,08,08,24,6.10
2011,07,08,08,25,6.80
2011,07,08,08,26,6.60
2011,07,08,08,27,7.00
2011,07,08,08,28,7.70
2011,07,08,08,29,5.90
2011,07,08,08,30,3.10
2011,07,08,08,31,7.60
2011,07,08,08,32,5.80
2011,07,08,08,33,4.00
2011,07,08,08,34,3.00
2011,07,08,08,35,4.70
2011,07,08,08,36,4.20
2011,07,08,08,37,1.00
2011,07,08,08,38,0.70
2011,07,08,08,39,3.30
2011,07,08,08,40,2.40
2011,07,08,08,41,7.20
2011,07,08,08,42,3.70
2011,07,08,08,43,7.20
2011,07,08,08,44,5.20
2011,07,08,08,45,4.80
2011,07,08,08,46,1.80
2011,07,08,08,47,4.70
2011,07,08,08,48,5.00
2011,07,08,08,49,8.20
2011,07,08,08,50,5.60
2011,07,08,08,51,3.40
2011,07,08,08,52,1.50
2011,07,08,08,53,5.00
2011,07,08,08,54,4.30
2011,07,08,08,55,3.10
2011,07,08,08,56,2.60
2011,07,08,08,57,4.20
2011,07,08,08,58,5.30
2011,07,08,08,59,4.50
2011,07,08,09,00,0.40
2011,07,08,09,01,6.70
2011,07,08,09,02,7.00
2011,07,08,09,03,6.40
2011,07,08,09,04,5.20
2011,07,08,09,05,6.30
2011,07,08,09,06,7.30
2011,07,08,09,07,7.70
2011,07,08,09,08,2.30
2011,07,08,09,09,5.90
2011,07,08,09,10,4.80
2011,07,08,09,11,5.00
2011,07,08,09,12,7.80
2011,07,08,09,13,7.50
2011,07,08,09,14,3.40
2011,07,08,09,15,8.50
2011,07,08,09,16,4.80
2011,07,08,09,17,2.40
2011,07,08,09,18,2.80
2011,07,08,09,19,5.40
2011,07,08,09,20,6.40
2011,07,08,09,21,2.50
2011,07,08,09,22,5.90
2011,07,08,09,23,1.80
2011,07,08,09,24,1.00
2011,07,08,09,25,0.60
2011,07,08,09,26,3.10
2011,07,08,09,27,6.50
2011,07,08,09,28,5.00
2011,07,08,09,29,2.50
2011,07,08,09,30,3.10
2011,07,08,09,31,5.60
2011,07,08,09,32,6.30
2011,07,08,09,33,6.00
2011,07,08,09,34,3.50
2011,07,08,09,35,0.10
2011,07,08,09,36,1.00
2011,07,08,09,37,4.70
2011,07,08,09,38,6.10
2011,07,08,09,39,4.60
2011,07,08,09,40,4.50
2011,07,08,09,41,5.00
2011,07,08,09,42,9.20
2011,07,08,09,43,9.60
2011,07,08,09,44,9.60
2011,07,08,09,45,9.60
2011,07,08,09,46,9.60
2011,07,08,09,47,9.60
2011,07,08,09,48,9.60
2011,07,08,09,49,9.60
2011,07,08,09,50,6.80
2011,07,08,09,51,8.70
2011,07,08,09,52,9.00
2011,07,08,09,53,7.00
2011,07,08,09,54,8.00
2011,07,08,09,55,5.60
2011,07,08,09,56,3.80
2011,07,08,09,57,5.00
2011,07,08,09,58,2.60
2011,07,08,09,59,5.50
2011,07,08,10,00,5.60
2011,07,08,10,01,5.10
2011,07,08,10,02,6.50
2011,07,08,10,03,5.60
2011,07,08,10,04,3.40
2011,07,08,10,05,3.90
2011,07,08,10,06,3.80
2011,07,08,10,07,3.80
2011,07,08,10,08,2.10
2011,07,08,10,09,3.10
2011,07,08,10,10,3.10
2011,07,08,10,11,4.60
2011,07,08,10,12,3.10
2011,07,08,10,13,4.90
2011,07,08,10,14,1.00
2011,07,08,10,15,1.80
2011,07,08,10,16,4.50
2011,07,08,10,17,4.70
2011,07,08,10,18,2.00
2011,07,08,10,19,2.40
2011,07,08,10,20,1.20
2011,07,08,10,21,0.10
2011,07,08,10,22,0.20
2011,07,08,10,23,0.20
2011,07,08,10,24,0.80
2011,07,08,10,25,5.10
2011,07,08,10,26,4.30
2011,07,08,10,27,5.70
2011,07,08,10,28,2.60
2011,07,08,10,29,4.10
2011,07,08,10,30,6.80
2011,07,08,10,31,6.70
2011,07,08,10,32,3.70
2011,07,08,10,33,6.10
2011,07,08,10,34,5.10
2011,07,08,10,35,7.20
2011,07,08,10,36,4.50
2011,07,08,10,37,1.80
2011,07,08,10,38,4.00
2011,07,08,10,39,2.00
2011,07,08,10,40,2.80
2011,07,08,10,41,3.60
2011,07,08,10,42,4.00
2011,07,08,10,43,2.20
2011,07,08,10,44,3.80
2011,07,08,10,45,7.70
2011,07,08,10,46,6.40
2011,07,08,10,47,2.70
2011,07,08,10,48,9.60
2011,07,08,10,49,8.60
2011,07,08,10,50,7.80
2011,07,08,10,51,6.40
2011,07,08,10,52,10.10
2011,07,08,10,53,8.90
2011,07,08,10,54,8.70
2011,07,08,10,55,6.40
2011,07,08,10,56,12.50
2011,07,08,10,57,10.30
2011,07,08,10,58,12.90
2011,07,08,10,59,11.80
2011,07,08,11,00,8.10
2011,07,08,11,01,9.10
2011,07,08,11,02,6.50
2011,07,08,11,03,6.20
2011,07,08,11,04,4.50
2011,07,08,11,05,2.30
2011,07,08,11,06,3.10
2011,07,08,11,07,2.30
2011,07,08,11,08,7.90
2011,07,08,11,09,4.20
2011,07,08,11,10,4.10
2011,07,08,11,11,2.20
2011,07,08,11,12,7.20
2011,07,08,11,13,6.70
2011,07,08,11,14,6.30
2011,07,08,11,15,7.70
2011,07,08,11,16,5.80
2011,07,08,11,17,3.60
2011,07,08,11,18,3.50
2011,07,08,11,19,3.80
2011,07,08,11,20,8.70
2011,07,08,11,21,9.80
2011,07,08,11,22,3.20
2011,07,08,11,23,1.90
2011,07,08,11,24,4.30
2011,07,08,11,25,4.80
2011,07,08,11,26,8.00
2011,07,08,11,27,11.10
2011,07,08,11,28,6.70
2011,07,08,11,29,7.60
2011,07,08,11,30,12.90
2011,07,08,11,31,8.50
2011,07,08,11,32,10.10
2011,07,08,11,33,6.20
2011,07,08,11,34,8.60
2011,07,08,11,35,15.00
2011,07,08,11,36,12.30
2011,07,08,11,37,12.20
2011,07,08,11,38,14.00
2011,07,08,11,39,11.10
2011,07,08,11,40,8.90
2011,07,08,11,41,10.50
2011,07,08,11,42,6.10
2011,07,08,11,43,10.00
2011,07,08,11,44,10.90
2011,07,08,11,45,9.10
2011,07,08,11,46,7.40
2011,07,08,11,47,8.00
2011,07,08,11,48,3.30
2011,07,08,11,49,6.70
2011,07,08,11,50,6.40
2011,07,08,11,51,10.30
2011,07,08,11,52,8.20
2011,07,08,11,53,8.60
2011,07,08,11,54,6.80
2011,07,08,11,55,5.80
2011,07,08,11,56,8.40
2011,07,08,11,57,7.40
2011,07,08,11,58,7.40
2011,07,08,11,59,7.60
2011,07,08,12,00,7.20
2011,07,08,12,01,6.10
2011,07,08,12,02,3.60
2011,07,08,12,03,8.30
2011,07,08,12,04,7.80
2011,07,08,12,05,7.60
2011,07,08,12,06,2.20
2011,07,08,12,07,7.80
2011,07,08,12,08,7.30
2011,07,08,12,09,7.90
2011,07,08,12,10,7.40
2011,07,08,12,11,6.90
2011,07,08,12,12,7.20
2011,07,08,12,13,2.40
2011,07,08,12,14,5.20
2011,07,08,12,15,2.30
2011,07,08,12,16,3.80
2011,07,08,12,17,6.90
2011,07,08,12,18,7.10
2011,07,08,12,19,5.90
2011,07,08,12,20,9.50
2011,07,08,12,21,8.00
2011,07,08,12,22,9.30
2011,07,08,12,23,7.70
2011,07,08,12,24,10.10
2011,07,08,12,25,8.60
2011,07,08,12,26,11.30
2011,07,08,12,27,9.70
2011,07,08,12,28,8.90
2011,07,08,12,29,11.00
2011,07,08,12,30,6.10
2011,07,08,12,31,4.90
2011,07,08,12,32,2.20
2011,07,08,12,33,7.30
2011,07,08,12,34,4.10
2011,07,08,12,35,3.80
2011,07,08,12,36,4.80
2011,07,08,12,37,4.00
2011,07,08,12,38,4.90
2011,07,08,12,39,5.80
2011,07,08,12,40,7.70
2011,07,08,12,41,8.60
2011,07,08,12,42,8.70
2011,07,08,12,43,11.40
2011,07,08,12,44,11.50
2011,07,08,12,45,3.10
2011,07,08,12,46,7.30
2011,07,08,12,47,6.80
2011,07,08,12,48,5.30
2011,07,08,12,49,5.30
2011,07,08,12,50,8.30
2011,07,08,12,51,4.70
2011,07,08,12,52,8.50
2011,07,08,12,53,7.10
2011,07,08,12,54,8.50
2011,07,08,12,55,7.20
2011,07,08,12,56,6.00
2011,07,08,12,57,8.90
2011,07,08,12,58,4.40
2011,07,08,12,59,8.10
2011,07,08,13,00,6.10
2011,07,08,13,01,1.80
2011,07,08,13,02,9.30
2011,07,08,13,03,5.60
2011,07,08,13,04,6.60
2011,07,08,13,05,10.00
2011,07,08,13,06,5.80
2011,07,08,13,07,7.70
2011,07,08,13,08,8.90
2011,07,08,13,09,7.30
2011,07,08,13,10,8.70
2011,07,08,13,11,5.30
2011,07,08,13,12,6.40
2011,07,08,13,13,11.10
2011,07,08,13,14,8.10
2011,07,08,13,15,10.20
2011,07,08,13,16,6.10
2011,07,08,13,17,10.40
2011,07,08,13,18,8.70
2011,07,08,13,19,5.60
2011,07,08,13,20,4.30
2011,07,08,13,21,5.80
2011,07,08,13,22,5.40
2011,07,08,13,23,7.50
2011,07,08,13,24,9.20
2011,07,08,13,25,4.70
2011,07,08,13,26,3.00
2011,07,08,13,27,3.30
2011,07,08,13,28,6.10
2011,07,08,13,29,5.70
2011,07,08,13,30,9.00
2011,07,08,13,31,8.80
2011,07,08,13,32,6.20
2011,07,08,13,33,6.00
2011,07,08,13,34,7.10
2011,07,08,13,35,7.80
2011,07,08,13,36,9.90
2011,07,08,13,37,7.00
2011,07,08,13,38,9.00
2011,07,08,13,39,6.20
2011,07,08,13,40,9.70
2011,07,08,13,41,6.60
2011,07,08,13,42,6.40
2011,07,08,13,43,8.90
2011,07,08,13,44,8.20
2011,07,08,13,45,8.30
2011,07,08,13,46,10.00
2011,07,08,13,47,5.20
2011,07,08,13,48,8.80
2011,07,08,13,49,6.90
2011,07,08,13,50,8.10
2011,07,08,13,51,8.20
2011,07,08,13,52,6.90
2011,07,08,13,53,8.20
2011,07,08,13,54,10.20
2011,07,08,13,55,8.60
2011,07,08,13,56,6.70
2011,07,08,13,57,5.30
2011,07,08,13,58,3.30
2011,07,08,13,59,3.80
2011,07,08,14,00,5.60
2011,07,08,14,01,9.30
2011,07,08,14,02,5.70
2011,07,08,14,03,8.20
2011,07,08,14,04,7.60
2011,07,08,14,05,10.10
2011,07,08,14,06,7.90
2011,07,08,14,07,7.00
2011,07,08,14,08,7.20
2011,07,08,14,09,6.00
2011,07,08,14,10,7.40
2011,07,08,14,11,9.20
2011,07,08,14,12,9.60
2011,07,08,14,13,9.50
2011,07,08,14,14,7.80
2011,07,08,14,15,4.90
2011,07,08,14,16,3.20
2011,07,08,14,17,13.50
2011,07,08,14,18,5.70
2011,07,08,14,19,10.10
2011,07,08,14,20,11.10
2011,07,08,14,21,12.20
2011,07,08,14,22,8.50
2011,07,08,14,23,10.20
2011,07,08,14,24,5.30
2011,07,08,14,25,14.70
2011,07,08,14,26,8.10
2011,07,08,14,27,8.50
2011,07,08,14,28,9.40
2011,07,08,14,29,12.30
2011,07,08,14,30,11.30
2011,07,08,14,31,11.90
2011,07,08,14,32,10.00
2011,07,08,14,33,10.10
2011,07,08,14,34,12.00
2011,07,08,14,35,10.50
2011,07,08,14,36,12.30
2011,07,08,14,37,15.70
2011,07,08,14,38,10.90
2011,07,08,14,39,6.40
2011,07,08,14,40,9.80
2011,07,08,14,41,12.70
2011,07,08,14,42,13.40
2011,07,08,14,43,9.20
2011,07,08,14,44,14.90
2011,07,08,14,45,10.70
2011,07,08,14,46,10.80
2011,07,08,14,47,16.60
2011,07,08,14,48,12.40
2011,07,08,14,49,13.10
2011,07,08,14,50,12.20
2011,07,08,14,51,12.40
2011,07,08,14,52,11.30
2011,07,08,14,53,9.40
2011,07,08,14,54,12.90
2011,07,08,14,55,16.40
2011,07,08,14,56,12.80
2011,07,08,14,57,18.10
2011,07,08,14,58,14.70
2011,07,08,14,59,8.10
2011,07,08,15,00,9.90
2011,07,08,15,01,12.30
2011,07,08,15,02,11.70
2011,07,08,15,03,8.40
2011,07,08,15,04,13.80
2011,07,08,15,05,9.00
2011,07,08,15,06,7.00
2011,07,08,15,07,10.40
2011,07,08,15,08,7.20
2011,07,08,15,09,9.90
2011,07,08,15,10,9.10
2011,07,08,15,11,5.00
2011,07,08,15,12,12.90
2011,07,08,15,13,9.40
2011,07,08,15,14,6.90
2011,07,08,15,15,11.00
2011,07,08,15,16,9.40
2011,07,08,15,17,5.60
2011,07,08,15,18,9.70
2011,07,08,15,19,8.70
2011,07,08,15,20,5.50
2011,07,08,15,21,8.40
2011,07,08,15,22,11.70
2011,07,08,15,23,4.80
2011,07,08,15,24,9.60
2011,07,08,15,25,11.00
2011,07,08,15,26,6.80
2011,07,08,15,27,8.30
2011,07,08,15,28,6.70
2011,07,08,15,29,6.80
2011,07,08,15,30,3.80
2011,07,08,15,31,8.90
2011,07,08,15,32,10.60
2011,07,08,15,33,8.10
2011,07,08,15,34,9.00
2011,07,08,15,35,14.60
2011,07,08,15,36,6.40
2011,07,08,15,37,8.90
2011,07,08,15,38,6.30
2011,07,08,15,39,8.30
2011,07,08,15,40,6.20
2011,07,08,15,41,6.90
2011,07,08,15,42,6.20
2011,07,08,15,43,8.50
2011,07,08,15,44,7.00
2011,07,08,15,45,8.30
2011,07,08,15,46,9.60
2011,07,08,15,47,5.40
2011,07,08,15,48,5.30
2011,07,08,15,49,5.20
2011,07,08,15,50,4.00
2011,07,08,15,51,6.40
2011,07,08,15,52,5.80
2011,07,08,15,53,5.80
2011,07,08,15,54,7.00
2011,07,08,15,55,6.10
2011,07,08,15,56,9.50
2011,07,08,15,57,6.10
2011,07,08,15,58,3.80
2011,07,08,15,59,8.60
2011,07,08,16,00,8.20
2011,07,08,16,01,7.60
2011,07,08,16,02,7.70
2011,07,08,16,03,7.40
2011,07,08,16,04,3.30
2011,07,08,16,05,6.40
2011,07,08,16,06,6.90
2011,07,08,16,07,8.30
2011,07,08,16,08,8.80
2011,07,08,16,09,3.10
2011,07,08,16,10,9.20
2011,07,08,16,11,8.60
2011,07,08,16,12,3.70
2011,07,08,16,13,6.40
2011,07,08,16,14,5.50
2011,07,08,16,15,4.70
2011,07,08,16,16,12.20
2011,07,08,16,17,7.30
2011,07,08,16,18,3.20
2011,07,08,16,19,11.90
2011,07,08,16,20,8.70
2011,07,08,16,21,5.70
2011,07,08,16,22,7.00
2011,07,08,16,23,14.60
2011,07,08,16,24,8.70
2011,07,08,16,25,5.40
2011,07,08,16,26,8.10
2011,07,08,16,27,7.00
2011,07,08,16,28,7.20
2011,07,08,16,29,9.70
2011,07,08,16,30,8.90
2011,07,08,16,31,6.60
2011,07,08,16,32,7.80
2011,07,08,16,33,7.10
2011,07,08,16,34,7.60
2011,07,08,16,35,5.60
2011,07,08,16,36,11.40
2011,07,08,16,37,6.40
2011,07,08,16,38,10.00
2011,07,08,16,39,7.00
2011,07,08,16,40,6.30
2011,07,08,16,41,8.30
2011,07,08,16,42,8.80
2011,07,08,16,43,11.60
2011,07,08,16,44,4.50
2011,07,08,16,45,12.60
2011,07,08,16,46,12.50
2011,07,08,16,47,9.90
2011,07,08,16,48,7.20
2011,07,08,16,49,10.10
2011,07,08,16,50,12.30
2011,07,08,16,51,7.10
2011,07,08,16,52,6.60
2011,07,08,16,53,10.00
2011,07,08,16,54,7.50
2011,07,08,16,55,12.60
2011,07,08,16,56,7.70
2011,07,08,16,57,10.60
2011,07,08,16,58,8.90
2011,07,08,16,59,10.40
2011,07,08,17,00,7.00
2011,07,08,17,01,6.50
2011,07,08,17,02,7.80
2011,07,08,17,03,9.30
2011,07,08,17,04,9.70
2011,07,08,17,05,7.50
2011,07,08,17,06,3.70
2011,07,08,17,07,7.20
2011,07,08,17,08,5.40
2011,07,08,17,09,2.10
2011,07,08,17,10,10.20
2011,07,08,17,11,2.40
2011,07,08,17,12,10.10
2011,07,08,17,13,1.90
2011,07,08,17,14,5.80
2011,07,08,17,15,7.60
2011,07,08,17,16,4.40
2011,07,08,17,17,1.30
2011,07,08,17,18,8.60
2011,07,08,17,19,6.40
2011,07,08,17,20,8.30
2011,07,08,17,21,6.30
2011,07,08,17,22,7.70
2011,07,08,17,23,6.10
2011,07,08,17,24,2.80
2011,07,08,17,25,9.40
2011,07,08,17,26,7.50
2011,07,08,17,27,8.40
2011,07,08,17,28,10.70
2011,07,08,17,29,7.00
2011,07,08,17,30,4.40
2011,07,08,17,31,6.10
2011,07,08,17,32,6.10
2011,07,08,17,33,3.10
2011,07,08,17,34,7.80
2011,07,08,17,35,3.80
2011,07,08,17,36,5.50
2011,07,08,17,37,6.40
2011,07,08,17,38,3.40
2011,07,08,17,39,4.80
2011,07,08,17,40,4.70
2011,07,08,17,41,9.20
2011,07,08,17,42,4.50
2011,07,08,17,43,5.30
2011,07,08,17,44,4.80
2011,07,08,17,45,4.60
2011,07,08,17,46,4.20
2011,07,08,17,47,1.00
2011,07,08,17,48,7.00
2011,07,08,17,49,6.40
2011,07,08,17,50,9.10
2011,07,08,17,51,6.30
2011,07,08,17,52,8.60
2011,07,08,17,53,3.70
2011,07,08,17,54,8.60
2011,07,08,17,55,6.50
2011,07,08,17,56,4.50
2011,07,08,17,57,1.90